sat.trackr.live / text

‹ back to catalog

STARLINK-36689

NORAD 67878 · 2026-034AE

PAYLOAD ACTIVE UNKNOWN

§ Identity

Operator
Country
US
Launch date
2026-02-20
Launch site
AFETR
Launch vehicle
Mass (kg)
RCS (m²)

Purposes: comms

External: N2YO · Heavens-Above · Gunter

§ Orbital elements

Epoch: 2026-05-25T04:08:33.789120Z

Period
94.10 min
Inclination
53.1591°
Eccentricity
0.0001254
Mean motion
15.30211327 rev/d
Perigee alt
474.3 km
Apogee alt
476.0 km
Semi-major
6,853.3 km
B*
5.1944e-4
RAAN
209.1199°
Arg perigee
85.2627°
Mean anomaly
274.8517°
Rev number
1,574

§ Raw data

STARLINK-366891 67878U 26034AE  26145.17261330  .00015062  00000+0  51944-3 0  99912 67878  53.1591 209.1199 0001254  85.2627 274.8517 15.30211327 15741

JSON: /api/v1/satellites/67878 · /tle

For live sub-satellite position, see the globe view (requires WebGL).

§ Visibility from observer

Set your observer location to see the next 7 days of passes ≥ 10°. The values pass through the URL so the page stays shareable.

No JS? Fill the form by hand. The geolocation button needs JavaScript.